Location: Gälforsberget
(66.6500°N, 22.4167°E)
Time: 08:35:30
(UTC+00:00)

Cosmos 405 Rocket - Pass Details

Date: 11 April 2026
Orbit: 359 x 378 km, 81.2° (Epoch: 14 May)

Event Time Altitude Azimuth Distance (km) Brightness Sun altitude
Rises 18:45:43 0° 338° (NNW) 2,251 7.0 -4.6°
Reaches altitude 10° 18:48:10 10° 359° (N) 1,389 5.4 -4.8°
Drops below altitude 10° 18:52:26 10° 90° (E) 1,372 4.4 -5.2°
Enters shadow 18:53:31 - 102° (ESE) 1,725 4.8 -5.3°
Exits shadow 19:29:36 -75° 153° (SSE) 12,706 9.6 -8.0°
Sets 20:18:37 0° 338° (NNW) 2,303 7.9 -11.0°
Maximum altitude 20:23:46 79° 66° (ENE) 384 2.0 -11.3°
